sat.trackr.live / text

‹ back to catalog

KUIPER-00527

NORAD 69269 · 2026-118C

PAYLOAD ACTIVE UNKNOWN

§ Identity

Operator
Country
US
Launch date
2026-05-29
Launch site
AFETR
Launch vehicle
Mass (kg)
RCS (m²)

External: N2YO · Heavens-Above · Gunter

§ Orbital elements

Epoch: 2026-09-19T11:56:19.280832Z

Period
97.30 min
Inclination
51.8983°
Eccentricity
0.0000473
Mean motion
14.79931141 rev/d
Perigee alt
629.2 km
Apogee alt
629.9 km
Semi-major
7,007.7 km
B*
1.5712e-4
RAAN
341.2529°
Arg perigee
91.2020°
Mean anomaly
268.8997°
Rev number
1,815

§ Raw data

KUIPER-005271 69269U 26118C   26262.49744538  .00000977  00000+0  15712-3 0  99932 69269  51.8983 341.2529 0000473  91.2020 268.8997 14.79931141 18156

JSON: /api/v1/satellites/69269 · /tle

For live sub-satellite position, see the globe view (requires WebGL).

§ Visibility from observer

Set your observer location to see the next 7 days of passes ≥ 10°. The values pass through the URL so the page stays shareable.

No JS? Fill the form by hand. The geolocation button needs JavaScript.